Middletown, OH

5:16 AM EDT on August 25, 2016 (GMT -0400)
Hook Field Municipal

Weather History for KMWO - September, 2013

Change the Weather History Date:

Wednesday, September 25, 2013

  Actual Average (KDAY) Record (KDAY)
Temperature  
Mean Temperature 62 °F 62 °F  
Max Temperature 72 °F 72 °F 94 °F (1908)
Min Temperature 52 °F 51 °F 35 °F (1903)
Degree Days  
Heating Degree Days 3 5  
Month to date heating degree days 58  
Since 1 July heating degree days 60  
Cooling Degree Days 0 2  
Month to date cooling degree days 92  
Year to date cooling degree days 874  
Growing Degree Days 12 (Base 50)    
Moisture  
Dew Point 48 °F    
Average Humidity 69    
Maximum Humidity 85    
Minimum Humidity 37    
Precipitation  
Precipitation 0.00 in 0.10 in 2.19 in (1993)
Month to date precipitation 2.77  
Year to date precipitation 31.08  
Snow  
Snow 0.00 in 0.00 in - ()
Month to date snowfall 0.0  
Since 1 July snowfall 0.0  
Since 1 September snowfall 0.0  
Snow Depth -    
Sea Level Pressure  
Sea Level Pressure 29.94 in    
Wind  
Wind Speed 2 mph (NE)    
Max Wind Speed 8 mph    
Max Gust Speed -    
Visibility 10 miles    
Events      
T = Trace of Precipitation, MM = Missing Value Source: NWS Daily Summary

Daily Weather History Graph

Daily Weather History Graph

Search for Another Location

Airport or City:

Trip Planner

Search our weather history database for the weather conditions in past years. The results will help you decide how hot, cold, wet, or windy it might be!

Date:

Astronomy

Sep. 25, 2013 Rise Set
Actual Time 7:28 AM EDT 7:29 PM EDT
Civil Twilight 7:01 AM EDT 7:56 PM EDT
Nautical Twilight 6:30 AM EDT 8:27 PM EDT
Astronomical Twilight 5:58 AM EDT 8:59 PM EDT
Moon 11:36 PM EDT 1:31 PM EDT
Length of Visible Light 12h 54m
Length of Day
12h 01m
Waning Gibbous, 64% of the Moon is Illuminated
Sep 25
Waning Gibbous
Sep 26
Last Quarter
Oct 4
New
Oct 11
First Quarter
Oct 18
Full

Hourly Weather History & Observations

Time (EDT) Temp. Dew Point Humidity Pressure Visibility Wind Dir Wind Speed Gust Speed Precip Events Conditions
12:15 AM 52.7 °F 47.5 °F 82% 29.95 in 10.0 mi Calm Calm - N/A   Clear
12:35 AM 54.0 °F 47.7 °F 79% 29.96 in 10.0 mi Calm Calm - N/A   Clear
12:55 AM 52.7 °F 47.7 °F 83% 29.96 in 10.0 mi North 4.6 mph - N/A   Clear
1:15 AM 55.4 °F 48.9 °F 79% 29.96 in 10.0 mi North 3.5 mph - N/A   Clear
1:35 AM 55.4 °F 49.3 °F 80% 29.95 in 10.0 mi North 3.5 mph - N/A   Clear
1:55 AM 52.7 °F 46.8 °F 80% 29.95 in 10.0 mi North 4.6 mph - N/A   Clear
2:15 AM 52.7 °F 47.3 °F 82% 29.95 in 10.0 mi North 3.5 mph - N/A   Clear
2:35 AM 52.7 °F 47.3 °F 82% 29.94 in 10.0 mi NNE 3.5 mph - N/A   Clear
2:55 AM 53.6 °F 47.1 °F 79% 29.93 in 10.0 mi North 4.6 mph - N/A   Clear
3:35 AM 52.7 °F 47.5 °F 82% 29.93 in 10.0 mi North 3.5 mph - N/A   Clear
3:55 AM 52.7 °F 46.8 °F 80% 29.93 in 10.0 mi Calm Calm - N/A   Clear
4:15 AM 52.9 °F 46.9 °F 80% 29.92 in 10.0 mi Calm Calm - N/A   Clear
4:35 AM 54.0 °F 48.0 °F 80% 29.92 in 10.0 mi Calm Calm - N/A   Clear
4:55 AM 53.6 °F 47.8 °F 81% 29.93 in 10.0 mi Calm Calm - N/A   Clear
5:35 AM 53.2 °F 46.8 °F 79% 29.93 in 10.0 mi North 3.5 mph - N/A   Clear
5:55 AM 52.7 °F 47.1 °F 81% 29.93 in 10.0 mi North 3.5 mph - N/A   Clear
6:15 AM 52.7 °F 47.3 °F 82% 29.93 in 10.0 mi North 4.6 mph - N/A   Clear
6:35 AM 52.7 °F 47.3 °F 82% 29.94 in 10.0 mi Calm Calm - N/A   Clear
6:55 AM 52.7 °F 47.7 °F 83% 29.95 in 10.0 mi Calm Calm - N/A   Mostly Cloudy
7:15 AM 52.7 °F 47.5 °F 82% 29.95 in 10.0 mi Calm Calm - N/A   Scattered Clouds
7:35 AM 52.7 °F 48.2 °F 85% 29.94 in 10.0 mi Calm Calm - N/A   Clear
7:55 AM 52.7 °F 48.2 °F 85% 29.95 in 10.0 mi Calm Calm - N/A   Clear
8:15 AM 52.7 °F 48.2 °F 85% 29.95 in 10.0 mi Calm Calm - N/A   Clear
8:35 AM 52.7 °F 47.5 °F 82% 29.95 in 10.0 mi NNE 4.6 mph - N/A   Clear
8:55 AM 55.4 °F 49.1 °F 79% 29.95 in 10.0 mi NNE 3.5 mph - N/A   Clear
9:15 AM 55.4 °F 48.4 °F 77% 29.95 in 10.0 mi NE 3.5 mph - N/A   Clear
9:35 AM 57.7 °F 49.1 °F 73% 29.95 in 10.0 mi NE 6.9 mph - N/A   Clear
9:55 AM 59.4 °F 49.3 °F 69% 29.95 in 10.0 mi NE 5.8 mph - N/A   Clear
10:15 AM 60.1 °F 48.4 °F 65% 29.96 in 10.0 mi East 4.6 mph - N/A   Clear
10:35 AM 60.1 °F 48.7 °F 66% 29.96 in 10.0 mi ENE 5.8 mph - N/A   Clear
10:55 AM 62.2 °F 49.8 °F 64% 29.96 in 10.0 mi ENE 6.9 mph - N/A   Clear
11:15 AM 65.3 °F 51.1 °F 60% 29.97 in 10.0 mi NE 6.9 mph - N/A   Clear
11:35 AM 65.7 °F 50.5 °F 58% 29.97 in 10.0 mi NE 8.1 mph - N/A   Clear
11:55 AM 67.6 °F 51.3 °F 56% 29.96 in 10.0 mi NE 8.1 mph - N/A   Clear
12:15 PM 67.6 °F 49.5 °F 52% 29.95 in 10.0 mi ENE 6.9 mph - N/A   Clear
12:35 PM 67.6 °F 48.7 °F 51% 29.95 in 10.0 mi East 5.8 mph - N/A   Clear
12:55 PM 67.6 °F 48.6 °F 50% 29.95 in 10.0 mi NE 8.1 mph - N/A   Clear
1:15 PM 67.6 °F 48.2 °F 50% 29.96 in 10.0 mi East 5.8 mph - N/A   Clear
1:35 PM 67.6 °F 48.2 °F 50% 29.95 in 7.0 mi East 4.6 mph - N/A   Clear
2:15 PM 67.6 °F 47.7 °F 49% 29.93 in 10.0 mi Calm Calm - N/A   Clear
2:55 PM 71.2 °F 48.9 °F 45% 29.92 in 10.0 mi East 4.6 mph - N/A   Clear
3:15 PM 72.7 °F 49.6 °F 44% 29.92 in 10.0 mi SE 5.8 mph - N/A   Clear
3:35 PM 72.7 °F 49.1 °F 43% 29.91 in 10.0 mi ESE 4.6 mph - N/A   Clear
3:55 PM 72.7 °F 47.7 °F 41% 29.91 in 10.0 mi NE 4.6 mph - N/A   Clear
4:15 PM 72.7 °F 46.2 °F 39% 29.91 in 10.0 mi NE 6.9 mph - N/A   Clear
4:55 PM 72.7 °F 44.6 °F 37% 29.91 in 10.0 mi ENE 5.8 mph - N/A   Clear
5:15 PM 72.7 °F 45.9 °F 38% 29.91 in 10.0 mi North 4.6 mph - N/A   Clear
5:35 PM 72.7 °F 46.4 °F 39% 29.91 in 10.0 mi Calm Calm - N/A   Clear
5:55 PM 72.7 °F 47.7 °F 41% 29.91 in 10.0 mi Calm Calm - N/A   Clear
6:15 PM 72.7 °F 48.2 °F 42% 29.91 in 10.0 mi Calm Calm - N/A   Clear
6:35 PM 71.1 °F 47.3 °F 43% 29.91 in 10.0 mi Calm Calm - N/A   Clear
6:55 PM 67.8 °F 46.4 °F 46% 29.91 in 10.0 mi Calm Calm - N/A   Clear
7:15 PM 67.6 °F 48.6 °F 50% 29.92 in 10.0 mi Calm Calm - N/A   Clear
7:35 PM 61.9 °F 52.2 °F 70% 29.92 in 10.0 mi Calm Calm - N/A   Clear
7:55 PM 57.9 °F 50.7 °F 77% 29.92 in 10.0 mi Calm Calm - N/A   Clear
8:15 PM 57.7 °F 52.0 °F 81% 29.92 in 7.0 mi Calm Calm - N/A   Clear
8:35 PM 55.6 °F 50.2 °F 82% 29.93 in 10.0 mi Calm Calm - N/A   Clear
8:55 PM 55.4 °F 49.8 °F 81% 29.93 in 10.0 mi Calm Calm - N/A   Clear
9:15 PM 55.4 °F 50.2 °F 83% 29.93 in 10.0 mi Calm Calm - N/A   Clear
9:35 PM 55.4 °F 50.4 °F 83% 29.94 in 10.0 mi Calm Calm - N/A   Clear
9:55 PM 55.4 °F 50.2 °F 83% 29.95 in 10.0 mi Calm Calm - N/A   Clear
10:15 PM 54.9 °F 49.5 °F 82% 29.95 in 10.0 mi Calm Calm - N/A   Clear
10:35 PM 53.4 °F 48.4 °F 83% 29.95 in 10.0 mi Calm Calm - N/A   Clear
10:55 PM 52.7 °F 48.2 °F 85% 29.95 in 10.0 mi Calm Calm - N/A   Clear
11:15 PM 53.1 °F 47.8 °F 82% 29.96 in 10.0 mi Calm Calm - N/A   Clear
11:35 PM 52.7 °F 48.2 °F 85% 29.96 in 10.0 mi Calm Calm - N/A   Clear
11:55 PM 52.7 °F 48.4 °F 85% 29.96 in 10.0 mi Calm Calm - N/A   Clear